| time (UTC) | temp F | wind direction | speed MPH | gust MPH | rain 1hr in | rain 24hr in | rain mn in | humidity % | barometer mb |
| 20260508193150 | 91 | 24 | 0.0 | 0.0 | 0.00 | 0.00 | 0.00 | 48 | |
| 20260508192641 | 92 | 131 | 0.0 | 0.0 | 0.00 | 0.00 | 0.00 | 44 | |
| 20260508192133 | 92 | 131 | 0.0 | 0.0 | 0.00 | 0.00 | 0.00 | 42 | |
| 20260508191624 | 92 | 108 | 0.0 | 0.0 | 0.00 | 0.00 | 0.00 | 41 | |
| 20260508191115 | 92 | 130 | 0.0 | 0.0 | 0.00 | 0.00 | 0.00 | 41 | |
| 20260508190607 | 92 | 146 | 1.0 | 0.0 | 0.00 | 0.00 | 0.00 | 41 | |
| 20260508190058 | 92 | 170 | 0.0 | 0.0 | 0.00 | 0.00 | 0.00 | 41 | |
| 20260508185550 | 92 | 272 | 1.0 | 0.0 | 0.00 | 0.00 | 0.00 | 41 | |
| 20260508184022 | 92 | 254 | 1.0 | 0.0 | 0.00 | 0.00 | 0.00 | 41 | |
| 20260508183514 | 92 | 248 | 1.0 | 0.0 | 0.00 | 0.00 | 0.00 | 41 | |
| 20260508183006 | 92 | 242 | 1.0 | 0.0 | 0.00 | 0.00 | 0.00 | 43 | |
| 20260508182457 | 92 | 260 | 1.0 | 0.0 | 0.00 | 0.00 | 0.00 | 42 | |
| 20260508181948 | 92 | 275 | 1.0 | 0.0 | 0.00 | 0.00 | 0.00 | 42 | |
| 20260508181440 | 92 | 268 | 1.0 | 0.0 | 0.00 | 0.00 | 0.00 | 41 | |
| 20260508180931 | 92 | 249 | 1.0 | 0.0 | 0.00 | 0.00 | 0.00 | 41 | |
| 20260508180422 | 92 | 239 | 2.0 | 0.0 | 0.00 | 0.00 | 0.00 | 41 | |
| 20260508175913 | 92 | 257 | 1.0 | 0.0 | 0.00 | 0.00 | 0.00 | 42 | |
| 20260508175404 | 92 | 263 | 1.0 | 0.0 | 0.00 | 0.00 | 0.00 | 42 | |
| 20260508174855 | 92 | 250 | 1.0 | 0.0 | 0.00 | 0.00 | 0.00 | 43 | |
| 20260508174347 | 92 | 246 | 1.0 | 0.0 | 0.00 | 0.00 | 0.00 | 37 | |
| 20260508173329 | 92 | 233 | 2.0 | 0.0 | 0.00 | 0.00 | 0.00 | 36 | |
| 20260508172820 | 92 | 277 | 2.0 | 0.0 | 0.00 | 0.00 | 0.00 | 37 | |
| 20260508172311 | 92 | 291 | 3.0 | 0.0 | 0.00 | 0.00 | 0.00 | 36 | |
| 20260508171802 | 92 | 297 | 2.0 | 0.0 | 0.00 | 0.00 | 0.00 | 36 | |
| 20260508171254 | 92 | 278 | 2.0 | 0.0 | 0.00 | 0.00 | 0.00 | 36 | |
| 20260508170745 | 92 | 278 | 4.0 | 0.0 | 0.00 | 0.00 | 0.00 | 36 | |
| 20260508170236 | 92 | 285 | 3.0 | 0.0 | 0.00 | 0.00 | 0.00 | 36 | |
| 20260508165727 | 92 | 300 | 4.0 | 0.0 | 0.00 | 0.00 | 0.00 | 36 | |
| 20260508165218 | 92 | 266 | 2.0 | 0.0 | 0.00 | 0.00 | 0.00 | 36 | |
| 20260508164709 | 92 | 268 | 3.0 | 0.0 | 0.00 | 0.00 | 0.00 | 37 | |
| 20260508164201 | 92 | 260 | 4.0 | 0.0 | 0.00 | 0.00 | 0.00 | 37 | |
| 20260508163652 | 92 | 276 | 3.0 | 0.0 | 0.00 | 0.00 | 0.00 | 37 | |
| 20260508163144 | 92 | 283 | 4.0 | 0.0 | 0.00 | 0.00 | 0.00 | 37 | |
| 20260508162635 | 92 | 266 | 3.0 | 0.0 | 0.00 | 0.00 | 0.00 | 37 | |
| 20260508162126 | 92 | 342 | 3.0 | 0.0 | 0.00 | 0.00 | 0.00 | 37 | |
| 20260508161617 | 92 | 305 | 4.0 | 0.0 | 0.00 | 0.00 | 0.00 | 37 | |
| 20260508161108 | 92 | 302 | 5.0 | 0.0 | 0.00 | 0.00 | 0.00 | 37 | |
| 20260508160559 | 92 | 324 | 4.0 | 0.0 | 0.00 | 0.00 | 0.00 | 37 | |
| 20260508160051 | 92 | 297 | 4.0 | 0.0 | 0.00 | 0.00 | 0.00 | 37 | |
| 20260508155542 | 92 | 321 | 2.0 | 0.0 | 0.00 | 0.00 | 0.00 | 37 | |
| 20260508155033 | 92 | 306 | 3.0 | 0.0 | 0.00 | 0.00 | 0.00 | 37 | |
| 20260508154525 | 92 | 332 | 4.0 | 0.0 | 0.00 | 0.00 | 0.00 | 37 | |
| 20260508154017 | 92 | 332 | 2.0 | 0.0 | 0.00 | 0.00 | 0.00 | 37 | |
| 20260508153508 | 92 | 278 | 4.0 | 0.0 | 0.00 | 0.00 | 0.00 | 37 | |
| 20260508152959 | 91 | 328 | 3.0 | 0.0 | 0.00 | 0.00 | 0.00 | 37 | |
| 20260508152451 | 91 | 332 | 4.0 | 0.0 | 0.00 | 0.00 | 0.00 | 38 | |
| 20260508151942 | 91 | 320 | 3.0 | 0.0 | 0.00 | 0.00 | 0.00 | 38 | |
| 20260508151434 | 91 | 294 | 4.0 | 0.0 | 0.00 | 0.00 | 0.00 | 39 | |
| 20260508125532 | 92 | 242 | 1.0 | 0.0 | 0.00 | 0.00 | 0.00 | 26 | |
| 20260508125024 | 92 | 56 | 1.0 | 0.0 | 0.00 | 0.00 | 0.00 | 26 | |
| 20260508124516 | 92 | 238 | 1.0 | 0.0 | 0.00 | 0.00 | 0.00 | 26 | |
| 20260508124007 | 92 | 174 | 0.0 | 0.0 | 0.00 | 0.00 | 0.00 | 26 | |
| 20260508123458 | 92 | 257 | 1.0 | 0.0 | 0.00 | 0.00 | 0.00 | 27 | |
| 20260508122950 | 92 | 148 | 0.0 | 0.0 | 0.00 | 0.00 | 0.00 | 26 | |
| 20260508121422 | 92 | 239 | 1.0 | 0.0 | 0.00 | 0.00 | 0.00 | 26 | |
| 20260508120403 | 92 | 198 | 1.0 | 0.0 | 0.00 | 0.00 | 0.00 | 27 | |
| 20260508115855 | 92 | 221 | 1.0 | 0.0 | 0.00 | 0.00 | 0.00 | 27 | |
| 20260508115346 | 92 | 207 | 0.0 | 0.0 | 0.00 | 0.00 | 0.00 | 27 | |
| 20260508114837 | 92 | 237 | 1.0 | 0.0 | 0.00 | 0.00 | 0.00 | 28 | |
| 20260508114328 | 92 | 195 | 2.0 | 0.0 | 0.00 | 0.00 | 0.00 | 28 | |
| 20260508113820 | 92 | 185 | 1.0 | 0.0 | 0.00 | 0.00 | 0.00 | 27 | |
| 20260508113311 | 92 | 178 | 1.0 | 0.0 | 0.00 | 0.00 | 0.00 | 27 | |
| 20260508112802 | 92 | 216 | 1.0 | 0.0 | 0.00 | 0.00 | 0.00 | 28 | |
| 20260508111744 | 92 | 260 | 1.0 | 0.0 | 0.00 | 0.00 | 0.00 | 31 | |
| 20260508111236 | 92 | 104 | 1.0 | 0.0 | 0.00 | 0.00 | 0.00 | 30 | |
| 20260508110727 | 92 | 222 | 1.0 | 0.0 | 0.00 | 0.00 | 0.00 | 31 | |
| 20260508110219 | 92 | 317 | 1.0 | 0.0 | 0.00 | 0.00 | 0.00 | 31 | |
| 20260508105710 | 92 | 264 | 0.0 | 0.0 | 0.00 | 0.00 | 0.00 | 31 | |
| 20260508105201 | 92 | 231 | 0.0 | 0.0 | 0.00 | 0.00 | 0.00 | 30 | |
| 20260508104653 | 92 | 88 | 0.0 | 0.0 | 0.00 | 0.00 | 0.00 | 30 | |
| 20260508104144 | 92 | 52 | 0.0 | 0.0 | 0.00 | 0.00 | 0.00 | 30 | |
| 20260508103636 | 92 | 126 | 1.0 | 0.0 | 0.00 | 0.00 | 0.00 | 30 | |
| 20260508102617 | 92 | 35 | 2.0 | 0.0 | 0.00 | 0.00 | 0.00 | 30 | |
| 20260508102108 | 92 | 62 | 2.0 | 0.0 | 0.00 | 0.00 | 0.00 | 30 | |
| 20260508101559 | 92 | 66 | 0.0 | 0.0 | 0.00 | 0.00 | 0.00 | 30 | |
| 20260508101051 | 91 | 118 | 0.0 | 0.0 | 0.00 | 0.00 | 0.00 | 30 | |
| 20260508100542 | 91 | 34 | 2.0 | 0.0 | 0.00 | 0.00 | 0.00 | 32 | |
| 20260508100033 | 92 | 256 | 0.0 | 0.0 | 0.00 | 0.00 | 0.00 | 33 | |
| 20260508095524 | 92 | 192 | 0.0 | 0.0 | 0.00 | 0.00 | 0.00 | 33 | |
| 20260508095016 | 92 | 277 | 2.0 | 0.0 | 0.00 | 0.00 | 0.00 | 33 | |
| 20260508094507 | 92 | 24 | 1.0 | 0.0 | 0.00 | 0.00 | 0.00 | 33 | |
| 20260508093959 | 92 | 242 | 2.0 | 0.0 | 0.00 | 0.00 | 0.00 | 31 | |
| 20260508093448 | 92 | 189 | 2.0 | 0.0 | 0.00 | 0.00 | 0.00 | 33 | |
| 20260508092940 | 92 | 113 | 1.0 | 0.0 | 0.00 | 0.00 | 0.00 | 33 | |
| 20260508092431 | 92 | 190 | 1.0 | 0.0 | 0.00 | 0.00 | 0.00 | 33 | |
| 20260508091923 | 92 | 9 | 1.0 | 0.0 | 0.00 | 0.00 | 0.00 | 32 | |
| 20260508091414 | 92 | 359 | 1.0 | 0.0 | 0.00 | 0.00 | 0.00 | 33 | |
| 20260508090905 | 92 | 160 | 2.0 | 0.0 | 0.00 | 0.00 | 0.00 | 33 | |
| 20260508085847 | 91 | 121 | 1.0 | 0.0 | 0.00 | 0.00 | 0.00 | 35 | |
| 20260508085338 | 92 | 79 | 1.0 | 0.0 | 0.00 | 0.00 | 0.00 | 34 | |
| 20260508084829 | 92 | 44 | 1.0 | 0.0 | 0.00 | 0.00 | 0.00 | 34 | |
| 20260508084321 | 92 | 358 | 2.0 | 0.0 | 0.00 | 0.00 | 0.00 | 33 | |
| 20260508083812 | 92 | 193 | 0.0 | 0.0 | 0.00 | 0.00 | 0.00 | 36 | |
| 20260508083304 | 91 | 192 | 0.0 | 0.0 | 0.00 | 0.00 | 0.00 | 30 | |
| 20260508082755 | 92 | 41 | 2.0 | 0.0 | 0.00 | 0.00 | 0.00 | 30 | |
| 20260508082247 | 92 | 30 | 1.0 | 0.0 | 0.00 | 0.00 | 0.00 | 31 | |
| 20260508081738 | 92 | 198 | 1.0 | 0.0 | 0.00 | 0.00 | 0.00 | 30 | |
| 20260508081229 | 92 | 63 | 1.0 | 0.0 | 0.00 | 0.00 | 0.00 | 32 | |
| 20260508080720 | 91 | 181 | 2.0 | 0.0 | 0.00 | 0.00 | 0.00 | 31 | |
| 20260508080211 | 91 | 17 | 0.0 | 0.0 | 0.00 | 0.00 | 0.00 | 31 | |
| 20260508075703 | 91 | 167 | 0.0 | 0.0 | 0.00 | 0.00 | 0.00 | 31 | |
| 20260508074618 | 91 | 36 | 1.0 | 0.0 | 0.00 | 0.00 | 0.00 | 33 | |
| 20260508074110 | 91 | 157 | 1.0 | 0.0 | 0.00 | 0.00 | 0.00 | 34 | |
| 20260508073601 | 91 | 221 | 1.0 | 0.0 | 0.00 | 0.00 | 0.00 | 33 | |
| 20260508073052 | 91 | 207 | 1.0 | 0.0 | 0.00 | 0.00 | 0.00 | 33 | |
| 20260508072543 | 91 | 113 | 0.0 | 0.0 | 0.00 | 0.00 | 0.00 | 33 | |
| 20260508072034 | 91 | 173 | 3.0 | 0.0 | 0.00 | 0.00 | 0.00 | 32 | |
| 20260508071525 | 91 | 330 | 0.0 | 0.0 | 0.00 | 0.00 | 0.00 | 32 | |
| 20260508070507 | 91 | 51 | 1.0 | 0.0 | 0.00 | 0.00 | 0.00 | 30 | |
| 20260508065958 | 91 | 76 | 1.0 | 0.0 | 0.00 | 0.00 | 0.00 | 30 | |
| 20260508065450 | 91 | 31 | 2.0 | 0.0 | 0.00 | 0.00 | 0.00 | 30 | |
| 20260508064941 | 91 | 21 | 1.0 | 0.0 | 0.00 | 0.00 | 0.00 | 30 | |
| 20260508064433 | 91 | 33 | 2.0 | 0.0 | 0.00 | 0.00 | 0.00 | 33 | |
| 20260508063924 | 90 | 78 | 2.0 | 0.0 | 0.00 | 0.00 | 0.00 | 33 | |
| 20260508063412 | 90 | 346 | 0.0 | 0.0 | 0.00 | 0.00 | 0.00 | 32 | |
| 20260508062904 | 90 | 292 | 1.0 | 0.0 | 0.00 | 0.00 | 0.00 | 33 | |
| 20260508062355 | 90 | 199 | 0.0 | 0.0 | 0.00 | 0.00 | 0.00 | 31 | |
| 20260508061846 | 90 | 340 | 2.0 | 0.0 | 0.00 | 0.00 | 0.00 | 32 | |
| 20260508060252 | 90 | 65 | 1.0 | 0.0 | 0.00 | 0.00 | 0.00 | 34 | |
| 20260508055743 | 90 | 97 | 2.0 | 0.0 | 0.00 | 0.00 | 0.00 | 35 | |
| 20260508055235 | 90 | 52 | 1.0 | 0.0 | 0.00 | 0.00 | 0.00 | 36 | |
| 20260508054726 | 90 | 184 | 2.0 | 0.0 | 0.00 | 0.00 | 0.00 | 35 | |
| 20260508054217 | 90 | 53 | 2.0 | 0.0 | 0.00 | 0.00 | 0.00 | 34 | |
| 20260508053708 | 90 | 29 | 2.0 | 0.0 | 0.00 | 0.00 | 0.00 | 34 | |
| 20260508053159 | 90 | 267 | 1.0 | 0.0 | 0.00 | 0.00 | 0.00 | 36 | |
| 20260508051739 | 90 | 71 | 2.0 | 0.0 | 0.00 | 0.00 | 0.00 | 38 | |
| 20260508051230 | 90 | 80 | 1.0 | 0.0 | 0.00 | 0.00 | 0.00 | 38 | |
| 20260508050212 | 90 | 244 | 0.0 | 0.0 | 0.00 | 0.00 | 0.00 | 39 | |
| 20260508045704 | 90 | 188 | 1.0 | 0.0 | 0.00 | 0.00 | 0.00 | 37 | |
| 20260508045155 | 90 | 217 | 1.0 | 0.0 | 0.00 | 0.00 | 0.00 | 37 | |
| 20260508044646 | 89 | 80 | 1.0 | 0.0 | 0.00 | 0.00 | 0.00 | 38 | |
| 20260508044137 | 89 | 54 | 2.0 | 0.0 | 0.00 | 0.00 | 0.00 | 37 | |
| 20260508043629 | 89 | 195 | 0.0 | 0.0 | 0.00 | 0.00 | 0.00 | 37 | |
| 20260508043120 | 89 | 4 | 2.0 | 0.0 | 0.00 | 0.00 | 0.00 | 39 | |
| 20260508042611 | 89 | 55 | 2.0 | 0.0 | 0.00 | 0.00 | 0.00 | 42 | |
| 20260508042103 | 90 | 50 | 3.0 | 0.0 | 0.00 | 0.00 | 0.00 | 43 | |
| 20260508041554 | 90 | 36 | 1.0 | 0.0 | 0.00 | 0.00 | 0.00 | 43 | |
| 20260508041046 | 90 | 230 | 1.0 | 0.0 | 0.00 | 0.00 | 0.00 | 43 | |
| 20260508040537 | 90 | 4 | 1.0 | 0.0 | 0.00 | 0.00 | 0.00 | 44 | |
| 20260508040028 | 90 | 74 | 1.0 | 0.0 | 0.00 | 0.00 | 0.00 | 44 | |
| 20260508035519 | 90 | 16 | 2.0 | 0.0 | 0.00 | 0.00 | 0.00 | 43 | |
| 20260508035010 | 89 | 262 | 1.0 | 0.0 | 0.00 | 0.00 | 0.00 | 41 | |
| 20260508034501 | 89 | 314 | 2.0 | 0.0 | 0.00 | 0.00 | 0.00 | 39 | |
| 20260508033952 | 89 | 347 | 1.0 | 0.0 | 0.00 | 0.00 | 0.00 | 39 | |
| 20260508033444 | 89 | 257 | 1.0 | 0.0 | 0.00 | 0.00 | 0.00 | 40 | |
| 20260508032935 | 89 | 298 | 1.0 | 0.0 | 0.00 | 0.00 | 0.00 | 45 | |
| 20260508032427 | 89 | 306 | 1.0 | 0.0 | 0.00 | 0.00 | 0.00 | 45 | |
| 20260508031918 | 88 | 321 | 1.0 | 0.0 | 0.00 | 0.00 | 0.00 | 46 | |
| 20260508031409 | 89 | 330 | 2.0 | 0.0 | 0.00 | 0.00 | 0.00 | 49 | |
| 20260508030901 | 89 | 322 | 2.0 | 0.0 | 0.00 | 0.00 | 0.00 | 48 | |
| 20260508030352 | 89 | 295 | 2.0 | 0.0 | 0.00 | 0.00 | 0.00 | 48 | |
| 20260508025844 | 89 | 315 | 2.0 | 0.0 | 0.00 | 0.00 | 0.00 | 48 | |
| 20260508025335 | 89 | 308 | 1.0 | 0.0 | 0.00 | 0.00 | 0.00 | 47 | |
| 20260508024826 | 89 | 264 | 3.0 | 0.0 | 0.00 | 0.00 | 0.00 | 47 | |
| 20260508024317 | 89 | 259 | 2.0 | 0.0 | 0.00 | 0.00 | 0.00 | 48 | |
| 20260508023809 | 89 | 289 | 2.0 | 0.0 | 0.00 | 0.00 | 0.00 | 48 | |
| 20260508023300 | 89 | 275 | 3.0 | 0.0 | 0.00 | 0.00 | 0.00 | 48 | |
| 20260508022751 | 89 | 306 | 1.0 | 0.0 | 0.00 | 0.00 | 0.00 | 48 | |
| 20260508022242 | 89 | 343 | 3.0 | 0.0 | 0.00 | 0.00 | 0.00 | 49 | |
| 20260508021733 | 89 | 327 | 4.0 | 0.0 | 0.00 | 0.00 | 0.00 | 49 | |
| 20260508021224 | 89 | 333 | 3.0 | 0.0 | 0.00 | 0.00 | 0.00 | 50 | |
| 20260508020715 | 89 | 285 | 1.0 | 0.0 | 0.00 | 0.00 | 0.00 | 49 | |
| 20260508020206 | 89 | 314 | 3.0 | 0.0 | 0.00 | 0.00 | 0.00 | 49 | |
| 20260508015658 | 89 | 314 | 2.0 | 0.0 | 0.00 | 0.00 | 0.00 | 47 | |
| 20260508015149 | 89 | 323 | 4.0 | 0.0 | 0.00 | 0.00 | 0.00 | 45 | |
| 20260508014641 | 89 | 339 | 4.0 | 0.0 | 0.00 | 0.00 | 0.00 | 45 | |
| 20260508014132 | 89 | 307 | 3.0 | 0.0 | 0.00 | 0.00 | 0.00 | 46 | |
| 20260508013623 | 89 | 3 | 1.0 | 0.0 | 0.00 | 0.00 | 0.00 | 45 | |
| 20260508013115 | 89 | 322 | 1.0 | 0.0 | 0.00 | 0.00 | 0.00 | 45 | |
| 20260508012606 | 89 | 348 | 1.0 | 0.0 | 0.00 | 0.00 | 0.00 | 46 | |
| 20260508012057 | 88 | 343 | 1.0 | 0.0 | 0.00 | 0.00 | 0.00 | 46 | |
| 20260508011549 | 88 | 313 | 1.0 | 0.0 | 0.00 | 0.00 | 0.00 | 47 | |
| 20260508011040 | 88 | 317 | 2.0 | 0.0 | 0.00 | 0.00 | 0.00 | 47 | |
| 20260508010531 | 88 | 330 | 2.0 | 0.0 | 0.00 | 0.00 | 0.00 | 46 | |
| 20260508010023 | 88 | 330 | 2.0 | 0.0 | 0.00 | 0.00 | 0.00 | 47 | |
| 20260508005514 | 88 | 11 | 1.0 | 0.0 | 0.00 | 0.00 | 0.00 | 46 | |
| 20260508005006 | 88 | 359 | 1.0 | 0.0 | 0.00 | 0.00 | 0.00 | 46 | |
| 20260508004457 | 88 | 343 | 1.0 | 0.0 | 0.00 | 0.00 | 0.00 | 45 | |
| 20260508003948 | 88 | 307 | 1.0 | 0.0 | 0.00 | 0.00 | 0.00 | 45 | |
| 20260508003440 | 88 | 226 | 0.0 | 0.0 | 0.00 | 0.00 | 0.00 | 45 | |
| 20260508002931 | 88 | 270 | 1.0 | 0.0 | 0.00 | 0.00 | 0.00 | 45 |